Cape Girardeau, MO

7:15 PM CDT on August 24, 2019 (GMT -0500)
Cape Girardeau Regional

Weather History for KCGI - July, 2019

Change the Weather History Date:

Sunday, July 21, 2019

  Actual Average Record
Temperature  
Mean Temperature 83 °F 79 °F  
Max Temperature 91 °F 89 °F 102 °F (1973)
Min Temperature 74 °F 68 °F 55 °F (2007)
Degree Days  
Heating Degree Days 0 0  
Month to date heating degree days 0 0  
Since 1 June heating degree days 0 4  
Since 1 July heating degree days 0 0  
Cooling Degree Days 18 14  
Month to date cooling degree days 350 291  
Year to date cooling degree days 863 755  
Since 1 June cooling degree days 644 603  
Growing Degree Days 33 (Base 50)    
Moisture  
Dew Point 75 °F    
Average Humidity 78    
Maximum Humidity 91    
Minimum Humidity 64    
Precipitation  
Precipitation 0.62 in 0.11 in 1.43 in (1990)
Month to date precipitation 5.86 2.28  
Year to date precipitation 41.13 26.95  
Sea Level Pressure  
Sea Level Pressure 29.91 in    
Wind  
Wind Speed 6 mph (SSW)    
Max Wind Speed 21 mph    
Max Gust Speed 34 mph    
Visibility 8 miles    
Events Rain , Thunderstorm    
T = Trace of Precipitation, MM = Missing Value Source: NWS Daily Summary

Daily Weather History Graph

Daily Weather History Graph

Search for Another Location

Airport or City:

Astronomy

Jul. 21, 2019 Rise Set
Actual Time 5:54 AM CDT 8:14 PM CDT
Civil Twilight 5:24 AM CDT 8:44 PM CDT
Nautical Twilight 4:47 AM CDT 9:21 PM CDT
Astronomical Twilight 4:07 AM CDT 10:01 PM CDT
Moon 11:14 PM CDT (7/21) 10:09 AM CDT (7/21)
Length of Visible Light 15h 20m
Length of Day
14h 20m
Waning Gibbous, 80% of the Moon is Illuminated
Jul 21
Waning Gibbous
Jul 24
Last Quarter
Jul 31
New
Aug 7
First Quarter
Aug 15
Full

Hourly Weather History & Observations

Time (CDT) Temp. Heat Index Dew Point Humidity Pressure Visibility Wind Dir Wind Speed Gust Speed Precip Events Conditions
12:53 AM 79.0 °F - 75.0 °F 88% 29.93 in 10.0 mi SE 4.6 mph - N/A   Clear
1:53 AM 80.1 °F 85.1 °F 75.0 °F 85% 29.91 in 10.0 mi SSW 5.8 mph - N/A   Scattered Clouds
2:53 AM 79.0 °F - 75.0 °F 88% 29.90 in 9.0 mi West 4.6 mph - N/A   Scattered Clouds
3:53 AM 79.0 °F - 75.0 °F 88% 29.90 in 7.0 mi SSW 3.5 mph - N/A   Scattered Clouds
4:53 AM 79.0 °F - 75.0 °F 88% 29.91 in 8.0 mi South 3.5 mph - N/A   Mostly Cloudy
5:53 AM 78.1 °F - 75.0 °F 90% 29.93 in 7.0 mi SSW 4.6 mph - N/A   Clear
6:53 AM 78.1 °F - 75.0 °F 90% 29.93 in 5.0 mi Calm Calm - N/A   Clear
7:43 AM 80.1 °F 85.4 °F 75.9 °F 87% 29.94 in 7.0 mi SSW 6.9 mph - N/A   Partly Cloudy
7:53 AM 80.1 °F 85.4 °F 75.9 °F 87% 29.93 in 8.0 mi SSW 6.9 mph - N/A   Clear
8:00 AM 80.1 °F 85.4 °F 75.9 °F 87% 29.94 in 8.0 mi SW 6.9 mph - N/A   Partly Cloudy
8:53 AM 82.0 °F 89.4 °F 75.9 °F 82% 29.94 in 10.0 mi SSW 4.6 mph - N/A   Partly Cloudy
9:53 AM 84.0 °F 92.6 °F 75.9 °F 76% 29.94 in 10.0 mi SW 5.8 mph - N/A   Clear
10:53 AM 86.0 °F 96.9 °F 77.0 °F 74% 29.94 in 10.0 mi SW 6.9 mph - N/A   Partly Cloudy
11:53 AM 90.0 °F 101.3 °F 75.9 °F 63% 29.94 in 10.0 mi Variable 4.6 mph - N/A   Scattered Clouds
12:53 PM 84.0 °F 92.6 °F 75.9 °F 76% 29.94 in 4.0 mi ESE 11.5 mph - 0.08 in Rain Heavy Rain
1:32 PM 82.9 °F 90.8 °F 75.9 °F 79% 29.95 in 4.0 mi SSE 15.0 mph 19.6 mph 0.02 in Rain , Thunderstorm Light Thunderstorms and Rain
1:53 PM 79.0 °F - 69.1 °F 72% 29.91 in 10.0 mi SSE 3.5 mph 27.6 mph 0.02 in Thunderstorm Thunderstorm
2:01 PM 79.0 °F - 72.0 °F 79% 29.92 in 10.0 mi SE 4.6 mph - N/A   Partly Cloudy
2:53 PM 84.0 °F 93.7 °F 77.0 °F 79% 29.89 in 10.0 mi South 3.5 mph - N/A   Clear
3:53 PM 91.0 °F 106.2 °F 78.1 °F 66% 29.88 in 10.0 mi SSW 5.8 mph - N/A   Scattered Clouds
4:53 PM 91.0 °F 104.2 °F 77.0 °F 63% 29.88 in 10.0 mi SSW 10.4 mph - N/A   Partly Cloudy
5:53 PM 90.0 °F 101.3 °F 75.9 °F 63% 29.87 in 10.0 mi SSW 10.4 mph - N/A   Partly Cloudy
6:53 PM 87.1 °F 97.3 °F 75.9 °F 69% 29.85 in 10.0 mi SSW 8.1 mph - N/A   Clear
7:48 PM 84.2 °F 92.3 °F 75.2 °F 74% 29.88 in 10.0 mi SW 5.8 mph - N/A Thunderstorm Mostly Cloudy
7:53 PM 84.9 °F 94.1 °F 75.9 °F 74% 29.88 in 10.0 mi SW 3.5 mph - N/A Thunderstorm Mostly Cloudy
8:50 PM 84.2 °F 92.3 °F 75.2 °F 74% 29.89 in 10.0 mi SW 5.8 mph - N/A Thunderstorm Thunderstorm
8:53 PM 84.0 °F 92.6 °F 75.9 °F 76% 29.88 in 10.0 mi SW 4.6 mph - N/A Thunderstorm Thunderstorm
9:53 PM 78.1 °F - 73.9 °F 87% 29.89 in 5.0 mi East 8.1 mph - 0.02 in Rain , Thunderstorm Light Thunderstorms and Rain
10:02 PM 79.0 °F - 75.0 °F 88% 29.92 in 1.5 mi North - - 0.19 in Rain , Thunderstorm Heavy Thunderstorms and Rain
10:12 PM 77.0 °F - 73.0 °F 88% 29.91 in 1.8 mi Calm Calm - 0.28 in Rain , Thunderstorm Light Thunderstorms and Rain
10:14 PM 77.0 °F - 73.0 °F 88% 29.90 in 3.0 mi North - - 0.28 in Rain , Thunderstorm Light Thunderstorms and Rain
10:53 PM 77.0 °F - 71.1 °F 82% 29.90 in 10.0 mi South 10.4 mph - 0.28 in Thunderstorm Thunderstorm
11:14 PM 75.9 °F - 68.0 °F 76% 29.91 in 10.0 mi South 8.1 mph - N/A Thunderstorm Mostly Cloudy
11:53 PM 75.9 °F - 71.1 °F 85% 29.91 in 6.0 mi South 15.0 mph 25.3 mph 0.06 in Rain , Thunderstorm Heavy Rain